This is the latest recevied weather packets stored in our database for station/object SM7SJR-13. If no packets are shown the sender has not sent any weather packets the latest 10 day(s).
| Time | Temp. | Humidity | Pressure | Rain* | Wind** | Luminosity | Snow |
|---|---|---|---|---|---|---|---|
| 1777646704 | 28.33° C | 20% | 1019.7 hPa | 0 mm | - | 466 W/m² | - |
| 1777641304 | 28.89° C | 22% | 1020.5 hPa | 0 mm | - | 624 W/m² | - |
| 1777635004 | 27.78° C | 26% | 1021.3 hPa | 0 mm | - | 649 W/m² | - |
| 1777626904 | 25° C | 30% | 1022.5 hPa | 0 mm | - | 698 W/m² | - |
| 1777623304 | 23.33° C | 29% | 1022.7 hPa | 0 mm | - | 533 W/m² | - |
| 1777622404 | 22.78° C | 34% | 1022.6 hPa | 0 mm | - | 469 W/m² | - |
| 1777619704 | 20° C | 40% | 1023 hPa | 0 mm | - | 492 W/m² | - |
| 1777617005 | 16.67° C | 53% | 1023.2 hPa | 0 mm | - | 415 W/m² | - |
| 1777613404 | 10.56° C | 86% | 1023.3 hPa | 0 mm | - | 272 W/m² | - |
| 1777606204 | 1.67° C | 95% | 1023.7 hPa | 0 mm | - | 11 W/m² | - |
| 1777602604 | 2.22° C | 95% | 1024.1 hPa | 0 mm | - | 0 W/m² | - |
| 1777597204 | 2.78° C | 94% | 1024.4 hPa | 0 mm | - | 0 W/m² | - |
| 1777596304 | 2.78° C | 93% | 1024.3 hPa | 0 mm | - | 0 W/m² | - |
| 1777593603 | 3.33° C | 93% | 1024.5 hPa | 0 mm | - | 0 W/m² | - |
| 1777592704 | 3.33° C | 93% | 1024.6 hPa | 0 mm | - | 0 W/m² | - |
| 1777589103 | 3.89° C | 92% | 1024.9 hPa | 0 mm | - | 0 W/m² | - |
| 1777585504 | 5° C | 91% | 1024.9 hPa | 0 mm | - | 0 W/m² | - |
| 1777580104 | 6.67° C | 87% | 1024.9 hPa | 0 mm | - | 0 W/m² | - |
| 1777573804 | 11.67° C | 74% | 1024.7 hPa | 0 mm | - | 5 W/m² | - |
| 1777569304 | 15.56° C | 59% | 1024.8 hPa | 0 mm | - | 23 W/m² | - |
| 1777565704 | 15.56° C | 58% | 1024.8 hPa | 0 mm | - | 32 W/m² | - |
| 1777561204 | 17.22° C | 56% | 1024.7 hPa | 0 mm | - | 403 W/m² | - |
| 1777560303 | 17.22° C | 54% | 1024.7 hPa | 0 mm | - | 478 W/m² | - |
| 1777558504 | 18.33° C | 49% | 1024.7 hPa | 0 mm | - | 468 W/m² | - |
| 1777554904 | 18.33° C | 48% | 1024.9 hPa | 0 mm | - | 584 W/m² | - |
* Rain latest hour (hover to see other rain measurements)
** Current wind speed in m/s (hover to see current wind gust speed)